TimeMST,TemperatureF,Dew PointF,Humidity,Sea Level PressureIn,VisibilityMPH,Wind Direction,Wind SpeedMPH,Gust SpeedMPH,PrecipitationIn,Events,Conditions,WindDirDegrees,DateUTC
12:56 AM,84.2,55.4,37,29.76,10.0,NNE,8.1,-,N/A,,Scattered Clouds,20,2013-09-13 07:56:00
1:56 AM,80.6,57.2,45,29.75,10.0,NW,8.1,-,N/A,,Partly Cloudy,320,2013-09-13 08:56:00
2:56 AM,78.8,57.2,47,29.75,10.0,NNW,4.6,-,N/A,,Clear,330,2013-09-13 09:56:00
3:56 AM,77.0,57.2,50,29.74,10.0,North,5.8,-,N/A,,Clear,350,2013-09-13 10:56:00
4:56 AM,77.0,57.2,50,29.74,10.0,NNW,5.8,-,N/A,,Partly Cloudy,330,2013-09-13 11:56:00
5:56 AM,75.2,57.2,53,29.74,10.0,NNW,6.9,-,N/A,,Clear,330,2013-09-13 12:56:00
6:56 AM,77.0,57.2,50,29.76,10.0,North,3.5,-,N/A,,Clear,360,2013-09-13 13:56:00
7:56 AM,82.4,59.0,45,29.77,10.0,North,4.6,-,N/A,,Clear,350,2013-09-13 14:56:00
8:56 AM,87.8,57.2,35,29.77,10.0,NE,5.8,-,N/A,,Clear,40,2013-09-13 15:56:00
9:56 AM,91.4,60.8,36,29.76,10.0,NE,3.5,-,N/A,,Clear,50,2013-09-13 16:56:00
10:56 AM,93.2,62.6,36,29.74,10.0,ENE,5.8,-,N/A,,Clear,60,2013-09-13 17:56:00
11:56 AM,95.0,62.6,34,29.71,10.0,East,9.2,-,N/A,,Clear,90,2013-09-13 18:56:00
12:56 PM,96.8,62.6,32,29.69,10.0,NE,3.5,-,N/A,,Clear,40,2013-09-13 19:56:00
1:56 PM,96.8,62.6,32,29.66,10.0,Variable,3.5,-,N/A,,Clear,0,2013-09-13 20:56:00
2:56 PM,98.6,62.6,30,29.63,10.0,West,5.8,-,N/A,,Clear,280,2013-09-13 21:56:00
3:56 PM,100.4,55.4,22,29.61,10.0,Calm,Calm,-,N/A,,Clear,0,2013-09-13 22:56:00
4:56 PM,100.4,55.4,22,29.60,10.0,WNW,2.3,-,N/A,,Clear,290,2013-09-13 23:56:00
5:56 PM,98.6,53.6,22,29.60,10.0,WNW,3.5,-,N/A,,Clear,290,2013-09-14 00:56:00
6:56 PM,96.8,55.4,25,29.60,10.0,WSW,4.6,-,N/A,,Clear,240,2013-09-14 01:56:00
7:56 PM,95.0,60.8,32,29.62,10.0,WSW,4.6,-,N/A,,Clear,240,2013-09-14 02:56:00
8:56 PM,91.4,57.2,31,29.63,10.0,WNW,5.8,-,N/A,,Clear,300,2013-09-14 03:56:00
9:56 PM,89.6,55.4,31,29.64,10.0,NW,8.1,-,N/A,,Clear,310,2013-09-14 04:56:00
10:56 PM,86.0,55.4,35,29.65,10.0,NNW,8.1,-,N/A,,Clear,330,2013-09-14 05:56:00
11:56 PM,84.2,55.4,37,29.65,10.0,North,8.1,-,N/A,,Clear,360,2013-09-14 06:56:00